Regional Weather Roundup
Issued by NWS

Home | Current Version | Previous Version | Text Only | Print | Product List | Glossary On
Versions: 1 2 3 4 5 6 7 8 9 10 11 12 13 14 15 16 17 18 19 20 21 22 23 24 25 26 27 28 29 30 31 32 33 34 35 36 37 38 39 40 41 42 43 44 45 46 47 48 49 50
000
ASUS43 KLSX 280057
RWRMO

WEATHER SUMMARY FOR MISSOURI
NATIONAL WEATHER SERVICE SPRINGFIELD MO
800 PM CDT TUE JUN 27 2017

NOTE: "FAIR" INDICATES FEW OR NO CLOUDS BELOW 12,000 FEET WITH NO
       SIGNIFICANT WEATHER AND/OR OBSTRUCTIONS TO VISIBILITY.
       CURRENT SKY AND/OR WEATHER CONDITIONS ARE NOT AVAILABLE FOR
       CHILLICOTHE AND FARMINGTON.

MOZ001>031-035>038-043-044-053-054-280200-
...NORTHERN AND WESTERN MISSOURI...

CITY           SKY/WX    TMP DP  RH WIND       PRES   REMARKS
KANSAS CTY INT PTCLDY    78  68  71 S13       29.89F
LEE`S SUMMIT   PTCLDY    78  66  66 S12G21    29.92F
ST JOSEPH      CLEAR     79  67  66 S13       29.86F
CHILLICOTHE      N/A     77  63  61 VRB7      29.93F

$$
MOZ066>068-077>081-088>096-101>105-280200-
...SOUTHWEST MISSOURI...

CITY           SKY/WX    TMP DP  RH WIND       PRES   REMARKS
SPRINGFIELD    CLEAR     78  63  59 SE13      29.98F
JOPLIN         CLEAR     81  65  58 SE10      29.95F
BRANSON        MOCLDY    77  63  61 SE7       30.03S

$$
MOZ032>034-039>042-045>050-055>058-069>072-280200-
...CENTRAL MISSOURI...

CITY           SKY/WX    TMP DP  RH WIND       PRES   REMARKS
COLUMBIA       NOT AVBL
JEFFERSON CITY CLEAR     79  60  52 SE7       29.97F
SEDALIA        CLEAR     77  67  71 SE9       29.97F

$$
MOZ051-052-059>065-280200-
...EAST CENTRAL MISSOURI...

CITY           SKY/WX    TMP DP  RH WIND       PRES   REMARKS
ST LOUIS INTL  PTCLDY    80  46  30 S9        30.02S

$$
MOZ072>076-082>087-097>100-106>115-280200-
...SOUTH CENTRAL AND SOUTHEAST MISSOURI...

CITY           SKY/WX    TMP DP  RH WIND       PRES   REMARKS
CAPE GIRARDEAU CLEAR     74  57  55 E6        30.04S
POPLAR BLUFF   CLEAR     76  63  64 S3        30.04S
WEST PLAINS    CLEAR     76  64  66 SE5       30.06R

$$


USA.gov is the U.S. government's official web portal to all federal, state and local government web resources and services.